637  
NZUS93 KARX 250010  
HRRWXR  
 
CURRENT HOURLY OBSERVATIONS ACROSS  
MUCH OF THE UPPER MISSISSIPPI VALLEY  
NATIONAL WEATHER SERVICE LA CROSSE WI  
600 PM CST MON NOV 24 2014  
 
   
..SOUTHEAST MINNESOTA
 
 
 
CITY SKY/WX TMP DP RH WIND PRES REMARKS  
ROCHESTER LGT SNOW 17 12 80 NW18 29.67R WCI 1  
ROCHESTER/MAYO CLOUDY 18 12 77 W22G35 29.67R WCI 1  
WINONA CLOUDY 23 18 80 NW14G22 29.67R WCI 11  
AUSTIN FLURRIES 14 9 79 NW22G31 29.71R WCI -4  
ALBERT LEA N/A N/A N/A N/A MISG 29.72R  
DODGE CENTER LGT SNOW 16 12 86 NW18G24 29.68R WCI -1  
PRESTON CLOUDY 15 12 85 NW20G25 29.67R WCI -2  
OWATONNA LGT SNOW 14 10 85 W22 29.72R WCI -4  
FARIBAULT LGT SNOW 16 12 86 W14 29.73R WCI 1  

 
   
..ELSEWHERE IN MINNESOTA
 
 
 
CITY SKY/WX TMP DP RH WIND PRES REMARKS  
MINNEAPOLIS CLOUDY 17 11 77 NW16G25 29.72R WCI 2  
INTNL FALLS LGT SNOW 16 10 77 NW13 29.76R WCI 2  
DULUTH LGT SNOW 18 12 77 N17G29 29.61R WCI 3  
RED WING FLURRIES 21 16 79 NW14 29.68R WCI 8  
REDWOOD FALLS CLOUDY 16 10 77 NW17G35 29.83R WCI 0  
MANKATO CLOUDY 14 7 73 NW22G28 29.76R WCI -4  
WORTHINGTON CLOUDY 21 14 73 NW22G30 29.83R WCI 5  
FAIRMONT CLOUDY 18 10 73 W21G30 29.78R WCI 1  

 
   
..SOUTHWEST WISCONSIN
 
 
 
CITY SKY/WX TMP DP RH WIND PRES REMARKS  
LA CROSSE FLURRIES 25 18 74 W13 29.64R WCI 14  
PRAIRIE DU CHI FLURRIES 22 15 74 W17G26 29.68R WCI 8  
BOSCOBEL CLOUDY 24 17 74 W16 29.65R WCI 11  
LONE ROCK CLOUDY 28 19 69 W18G25 29.62R WCI 15  
PLATTEVILLE CLOUDY 22 19 87 W20 29.65R WCI 7  
FORT MC COY LGT SNOW 24 21 90 W14 29.60R WCI 11  
CAMP DOUGLAS SNOW 25 25 100 W20G28 29.55R VSB 1/4 WCI 11  
VIROQUA CLOUDY 21 20 93 W15G25 29.59R WCI 8  
WIS DELLS LGT SNOW 24 22 91 W17 29.55R VSB 3/4 WCI 11  

 
   
..ELSEWHERE IN WISCONSIN
 
 
 
CITY SKY/WX TMP DP RH WIND PRES REMARKS  
MILWAUKEE LGT SNOW 28 23 81 W22G32 29.53R BLWGSNOWWCI 14  
MADISON LGT SNOW 25 22 88 W8G18 29.56R VSB 3/4 WCI 16  
GREEN BAY LGT SNOW 31 28 89 NW20G29 29.40R VSB 1 WCI 19  
EAU CLAIRE CLOUDY 23 17 78 NW15G23 29.60R WCI 10  
BLACK RVR FLS LGT SNOW 24 22 93 W17G26 29.58R WCI 11  
MEDFORD LGT SNOW 25 22 89 NW14G22 29.47R WCI 13  
WAUSAU LGT SNOW 26 23 88 NW16G24 29.43R FOG WCI 14  
WIS RAPIDS LGT SNOW 25 21 85 W17G24 29.50R WCI 12  
MARSHFIELD LGT SNOW 26 22 84 W20G25 29.47R FOG WCI 12  
RICE LAKE CLOUDY 23 17 79 NW9G18 29.61R WCI 13  

 
   
..NORTHEAST IOWA
 
 
 
CITY SKY/WX TMP DP RH WIND PRES REMARKS  
DECORAH CLOUDY 18 12 79 NW18G26 29.67R HAZE WCI 2  
MASON CITY LGT SNOW 17 13 84 NW21 29.76R FOG WCI 0  
CHARLES CITY LGT SNOW 18 12 79 NW23G29 29.73R WCI 0  
OELWEIN CLOUDY 21 16 79 W16G25 29.72R WCI 7  

 
   
..ELSEWHERE IN IOWA
 
 
 
CITY SKY/WX TMP DP RH WIND PRES REMARKS  
DES MOINES CLOUDY 28 17 63 NW22G30 29.83R WCI 14  
IOWA CITY NOT AVBL  
FORT DODGE CLOUDY 23 12 63 NW15G24 29.83R WCI 10  

 
   
..NORTHERN ILLINOIS
 
 
 
CITY SKY/WX TMP DP RH WIND PRES REMARKS  
CHICAGO-OHARE CLOUDY 27 22 81 W25G40 29.63R WCI 12  
CHICAGO-MIDWAY FLURRIES 30 24 78 W25G39 29.65R WCI 16  
MOLINE CLOUDY 27 21 78 W22G29 29.75R WCI 13  
ROCKFORD LGT SNOW 25 20 81 W18G26 29.66R WCI 11  
PEORIA FLURRIES 31 23 72 W16G29 29.80R WCI 20  

 
 
NOTE: "FAIR" INDICATES FEW OR NO CLOUDS BELOW 12,000 FEET WITH NO  
SIGNIFICANT WEATHER AND/OR OBSTRUCTIONS TO VISIBILITY. WIND  
SPEEDS ARE IN MILES-PER-HOUR.  
 
CLICK HERE TO GO TO PREVIOUS BULLETINS.

The Nexlab WI Page
The Nexlab IA Page
The Nexlab MN Page Main Text Page